Cody, WY

11:09 PM MDT on July 20, 2017 (GMT -0600)
Yellowstone Regional

Weather History for KCOD - February, 2013

Change the Weather History Date:

Wednesday, February 6, 2013

  Actual Average Record
Temperature  
Mean Temperature 38 °F -  
Max Temperature 44 °F 35 °F 64 °F (2015)
Min Temperature 33 °F 11 °F -22 °F (2014)
Degree Days  
Heating Degree Days 26    
Moisture  
Dew Point 15 °F    
Average Humidity 39    
Maximum Humidity 52    
Minimum Humidity 25    
Precipitation  
Precipitation 0.00 in - - ()
Sea Level Pressure  
Sea Level Pressure 29.89 in    
Wind  
Wind Speed 7 mph (West)    
Max Wind Speed 20 mph    
Max Gust Speed 29 mph    
Visibility 10 miles    
Events      
Averages and records for this station are not official NWS values.
T = Trace of Precipitation, MM = Missing Value Source: NWS Daily Summary

Daily Weather History Graph

Daily Weather History Graph

Search for Another Location

Airport or City:

Trip Planner

Search our weather history database for the weather conditions in past years. The results will help you decide how hot, cold, wet, or windy it might be!

Date:

Astronomy

Feb. 06, 2013 Rise Set
Actual Time 7:28 AM MST 5:32 PM MST
Civil Twilight 6:57 AM MST 6:03 PM MST
Nautical Twilight 6:23 AM MST 6:37 PM MST
Astronomical Twilight 5:49 AM MST 7:11 PM MST
Moon 4:19 AM MST (2/6) 1:50 PM MST (2/6)
Length of Visible Light 11h 05m
Length of Day
10h 04m
Waning Crescent, 16% of the Moon is Illuminated
Feb 6
Waning Crescent
Feb 10
New
Feb 17
First Quarter
Feb 25
Full
Mar 4
Last Quarter

Hourly Weather History & Observations

Time (MST) Temp. Windchill Dew Point Humidity Pressure Visibility Wind Dir Wind Speed Gust Speed Precip Events Conditions
12:15 AM 39.2 °F - 12.2 °F 33% 29.75 in 10.0 mi Calm Calm - N/A   Clear
12:35 AM 41.0 °F 39.0 °F 15.8 °F 36% 29.75 in 10.0 mi West 3.5 mph - N/A   Clear
1:15 AM 37.4 °F 32.1 °F 14.0 °F 38% 29.75 in 10.0 mi ESE 6.9 mph - N/A   Clear
1:35 AM 37.4 °F 31.4 °F 12.2 °F 36% 29.75 in 10.0 mi SSE 8.1 mph - N/A   Clear
1:55 AM 37.4 °F 32.1 °F 12.2 °F 36% 29.75 in 10.0 mi SE 6.9 mph - N/A   Clear
2:15 AM 33.8 °F 28.6 °F 14.0 °F 44% 29.76 in 10.0 mi South 5.8 mph - N/A   Clear
2:35 AM 35.6 °F 29.2 °F 14.0 °F 41% 29.75 in 10.0 mi SSE 8.1 mph - N/A   Clear
2:55 AM 37.4 °F 32.8 °F 14.0 °F 38% 29.75 in 10.0 mi SE 5.8 mph - N/A   Clear
3:15 AM 37.4 °F 32.8 °F 14.0 °F 38% 29.76 in 10.0 mi ESE 5.8 mph - N/A   Clear
3:35 AM 37.4 °F - 14.0 °F 38% 29.76 in 10.0 mi Calm Calm - N/A   Clear
3:55 AM 37.4 °F 32.8 °F 12.2 °F 36% 29.76 in 10.0 mi WNW 5.8 mph - N/A   Partly Cloudy
4:15 AM 37.4 °F - 14.0 °F 38% 29.77 in 10.0 mi Calm Calm - N/A   Scattered Clouds
4:35 AM 39.2 °F 32.5 °F 15.8 °F 39% 29.77 in 10.0 mi West 10.4 mph 16.1 mph N/A   Scattered Clouds
4:55 AM 41.0 °F 35.2 °F 15.8 °F 36% 29.78 in 10.0 mi West 9.2 mph 17.3 mph N/A   Clear
5:15 AM 41.0 °F 34.3 °F 15.8 °F 36% 29.79 in 10.0 mi WSW 11.5 mph 21.9 mph N/A   Clear
5:35 AM 41.0 °F 33.9 °F 15.8 °F 36% 29.79 in 10.0 mi West 12.7 mph 26.5 mph N/A   Clear
5:55 AM 39.2 °F 35.9 °F 17.6 °F 42% 29.80 in 10.0 mi NNW 4.6 mph 19.6 mph N/A   Clear
6:15 AM 37.4 °F 34.9 °F 15.8 °F 41% 29.81 in 10.0 mi NNW 3.5 mph - N/A   Partly Cloudy
6:35 AM 37.4 °F 32.8 °F 15.8 °F 41% 29.81 in 10.0 mi West 5.8 mph - N/A   Scattered Clouds
6:55 AM 35.6 °F 31.7 °F 15.8 °F 44% 29.82 in 10.0 mi NW 4.6 mph - N/A   Scattered Clouds
7:15 AM 35.6 °F 30.7 °F 17.6 °F 48% 29.83 in 10.0 mi NW 5.8 mph - N/A   Mostly Cloudy
7:35 AM 37.4 °F 32.8 °F 19.4 °F 48% 29.84 in 10.0 mi NW 5.8 mph - N/A   Partly Cloudy
7:55 AM 35.6 °F 30.7 °F 19.4 °F 52% 29.85 in 10.0 mi West 5.8 mph - N/A   Clear
8:15 AM 37.4 °F 30.3 °F 19.4 °F 48% 29.85 in 10.0 mi West 10.4 mph - N/A   Clear
8:35 AM 35.6 °F 32.8 °F 17.6 °F 48% 29.86 in 10.0 mi NW 3.5 mph - N/A   Clear
8:55 AM 37.4 °F 32.8 °F 19.4 °F 48% 29.87 in 10.0 mi West 5.8 mph - N/A   Clear
9:15 AM 39.2 °F - 17.6 °F 42% 29.88 in 10.0 mi Calm Calm - N/A   Clear
10:15 AM 39.2 °F 35.0 °F 21.2 °F 49% 29.89 in 10.0 mi North 5.8 mph - N/A   Mostly Cloudy
10:35 AM 41.0 °F 38.0 °F 19.4 °F 42% 29.90 in 10.0 mi North 4.6 mph - N/A   Overcast
10:55 AM 41.0 °F 37.1 °F 19.4 °F 42% 29.90 in 10.0 mi NNE 5.8 mph - N/A   Overcast
11:15 AM 41.0 °F 34.3 °F 21.2 °F 45% 29.90 in 10.0 mi North 11.5 mph - N/A   Overcast
11:35 AM 42.8 °F - 19.4 °F 39% 29.90 in 10.0 mi Calm Calm - N/A   Mostly Cloudy
11:55 AM 44.6 °F 38.4 °F 19.4 °F 37% 29.90 in 10.0 mi West 12.7 mph 18.4 mph N/A   Mostly Cloudy
12:15 PM 44.6 °F 38.8 °F 14.0 °F 29% 29.88 in 10.0 mi NNE 11.5 mph 21.9 mph N/A   Overcast
12:35 PM 42.8 °F 36.2 °F 19.4 °F 39% 29.89 in 10.0 mi NNW 12.7 mph - N/A   Overcast
12:55 PM 42.8 °F 38.0 °F 17.6 °F 36% 29.89 in 10.0 mi WNW 8.1 mph - N/A   Mostly Cloudy
1:15 PM 42.8 °F 38.0 °F 15.8 °F 34% 29.88 in 10.0 mi NW 8.1 mph - N/A   Mostly Cloudy
1:35 PM 44.6 °F 38.1 °F 14.0 °F 29% 29.88 in 10.0 mi WSW 13.8 mph 20.7 mph N/A   Mostly Cloudy
1:55 PM 44.6 °F 38.1 °F 10.4 °F 25% 29.88 in 10.0 mi WSW 13.8 mph 17.3 mph N/A   Overcast
2:35 PM 42.8 °F 36.2 °F 14.0 °F 31% 29.88 in 10.0 mi WSW 12.7 mph 20.7 mph N/A   Overcast
2:55 PM 42.8 °F 35.1 °F 12.2 °F 29% 29.89 in 10.0 mi West 16.1 mph 26.5 mph N/A   Mostly Cloudy
3:15 PM 41.0 °F 33.1 °F 14.0 °F 33% 29.91 in 10.0 mi WSW 15.0 mph 21.9 mph N/A   Mostly Cloudy
3:35 PM 42.8 °F 35.1 °F 14.0 °F 31% 29.91 in 10.0 mi West 16.1 mph 24.2 mph N/A   Partly Cloudy
4:15 PM 42.8 °F 34.3 °F 14.0 °F 31% 29.92 in 10.0 mi West 19.6 mph 25.3 mph N/A   Clear
4:35 PM 41.0 °F 32.8 °F 14.0 °F 33% 29.93 in 10.0 mi WSW 16.1 mph 28.8 mph N/A   Scattered Clouds
4:55 PM 39.2 °F 32.0 °F 12.2 °F 33% 29.95 in 10.0 mi NW 11.5 mph - N/A   Scattered Clouds
5:15 PM 39.2 °F 33.6 °F 15.8 °F 39% 29.96 in 10.0 mi West 8.1 mph - N/A   Mostly Cloudy
5:35 PM 37.4 °F 29.8 °F 15.8 °F 41% 29.97 in 10.0 mi WNW 11.5 mph - N/A   Mostly Cloudy
5:55 PM 37.4 °F 32.1 °F 14.0 °F 38% 29.98 in 10.0 mi WNW 6.9 mph - N/A   Mostly Cloudy
6:15 PM 35.6 °F 28.6 °F 14.0 °F 41% 29.98 in 10.0 mi WNW 9.2 mph - N/A   Overcast
6:35 PM 35.6 °F 30.7 °F 15.8 °F 44% 29.99 in 10.0 mi West 5.8 mph - N/A   Mostly Cloudy
6:55 PM 35.6 °F 27.5 °F 12.2 °F 38% 29.99 in 10.0 mi WSW 11.5 mph 16.1 mph N/A   Scattered Clouds
7:15 PM 35.6 °F 28.6 °F 15.8 °F 44% 29.99 in 10.0 mi WSW 9.2 mph 18.4 mph N/A   Clear
7:35 PM 35.6 °F 26.6 °F 12.2 °F 38% 30.00 in 10.0 mi West 13.8 mph 25.3 mph N/A   Clear
7:55 PM 35.6 °F 26.6 °F 12.2 °F 38% 30.01 in 10.0 mi WSW 13.8 mph 23.0 mph N/A   Clear
8:55 PM 35.6 °F 27.1 °F 12.2 °F 38% 30.02 in 10.0 mi West 12.7 mph 20.7 mph N/A   Clear
9:15 PM 35.6 °F 26.2 °F 12.2 °F 38% 30.02 in 10.0 mi West 15.0 mph 23.0 mph N/A   Clear
9:35 PM 33.8 °F 23.9 °F 12.2 °F 41% 30.02 in 10.0 mi West 15.0 mph 24.2 mph N/A   Clear
9:55 PM 33.8 °F 23.9 °F 12.2 °F 41% 30.03 in 10.0 mi WSW 15.0 mph 27.6 mph N/A   Clear
10:15 PM 33.8 °F 24.3 °F 12.2 °F 41% 30.03 in 10.0 mi West 13.8 mph 21.9 mph N/A   Clear
10:35 PM 33.8 °F 25.3 °F 12.2 °F 41% 30.03 in 10.0 mi West 11.5 mph 24.2 mph N/A   Clear
10:55 PM 33.8 °F 25.3 °F 10.4 °F 38% 30.03 in 10.0 mi West 11.5 mph 19.6 mph N/A   Clear
11:15 PM 33.8 °F 25.3 °F 10.4 °F 38% 30.04 in 10.0 mi SW 11.5 mph 17.3 mph N/A   Clear
11:35 PM 33.8 °F 28.6 °F 12.2 °F 41% 30.04 in 10.0 mi WSW 5.8 mph 18.4 mph N/A   Clear
11:55 PM 33.8 °F 25.8 °F 12.2 °F 41% 30.05 in 10.0 mi West 10.4 mph 17.3 mph N/A   Clear